FW3096 Weather Reports


Display with metric or nautical units.
time (UTC)temp
F
wind
direction
speed
MPH
gust
MPH
rain 1hr
in
rain 24hr
in
rain mn
in
humidity
%
barometer
mb
20260509064508 56 142 0.0 2.0 0.00 0.00 0.00 72 1013.3
20260509064010 56 142 0.0 4.0 0.00 0.00 0.00 72 1013.3
20260509063508 57 166 0.0 3.0 0.00 0.00 0.00 72 1013.4
20260509063008 57 187 0.0 2.0 0.00 0.00 0.00 71 1013.5
20260509062509 57 187 0.0 0.0 0.00 0.00 0.00 71 1013.5
20260509062008 57 187 0.0 3.0 0.00 0.00 0.00 71 1013.5
20260509061009 57 184 2.0 7.0 0.00 0.00 0.00 71 1013.7
20260509060507 57 255 2.0 7.0 0.00 0.00 0.00 70 1013.7
20260509060009 57 256 2.0 7.0 0.00 0.00 0.00 69 1013.6
20260509055508 57 99 1.0 3.0 0.00 0.00 0.00 68 1013.6
20260509055009 57 73 1.0 3.0 0.00 0.00 0.00 67 1013.7
20260509054008 57 244 0.0 1.0 0.00 0.00 0.00 67 1013.7
20260509053508 57 244 0.0 1.0 0.00 0.00 0.00 66 1013.8
20260509052508 57 244 1.0 2.0 0.00 0.00 0.00 66 1013.9
20260509052009 57 244 0.0 0.0 0.00 0.00 0.00 66 1013.9
20260509051509 57 244 0.0 1.0 0.00 0.00 0.00 66 1013.9
20260509051009 57 244 0.0 4.0 0.00 0.00 0.00 66 1014.0
20260509050507 57 244 1.0 4.0 0.00 0.00 0.00 66 1014.1
20260509050014 57 146 0.0 0.0 0.00 0.00 0.00 65 1014.1
20260509045509 57 146 0.0 0.0 0.00 0.00 0.00 65 1014.1
20260509045010 57 146 0.0 0.0 0.00 0.00 0.00 64 1014.0
20260509044511 57 146 0.0 0.0 0.00 0.00 0.00 64 1014.1
20260509044010 57 146 0.0 0.0 0.00 0.00 0.00 64 1014.1
20260509043509 57 146 0.0 0.0 0.00 0.00 0.00 64 1014.0
20260509042510 58 146 0.0 2.0 0.00 0.00 0.00 64 1014.1
20260509042010 58 146 0.0 2.0 0.00 0.00 0.00 65 1014.0
20260509041511 58 216 0.0 2.0 0.00 0.00 0.00 64 1014.0
20260509041010 58 207 0.0 0.0 0.00 0.00 0.00 64 1013.9
20260509040509 58 207 0.0 0.0 0.00 0.00 0.00 64 1014.0
20260509035011 59 207 0.0 0.0 0.00 0.00 0.00 63 1014.1
20260509034509 59 207 0.0 0.0 0.00 0.00 0.00 63 1014.0
20260509034009 59 207 0.0 0.0 0.00 0.00 0.00 62 1014.1
20260509033510 60 207 0.0 0.0 0.00 0.00 0.00 61 1014.1
20260509033009 60 207 0.0 0.0 0.00 0.00 0.00 61 1014.2
20260509032011 60 207 0.0 1.0 0.00 0.00 0.00 61 1014.2
20260509031508 60 207 0.0 0.0 0.00 0.00 0.00 60 1014.2
20260509031009 60 207 0.0 0.0 0.00 0.00 0.00 60 1014.1
20260509030510 60 207 0.0 0.0 0.00 0.00 0.00 60 1014.2
20260509030010 60 207 0.0 0.0 0.00 0.00 0.00 60 1014.0
20260509025508 60 207 0.0 0.0 0.00 0.00 0.00 60 1014.1
20260509025011 61 207 0.0 0.0 0.00 0.00 0.00 60 1013.9
20260509023510 61 207 0.0 3.0 0.00 0.00 0.00 59 1013.9
20260509023009 61 207 1.0 3.0 0.00 0.00 0.00 58 1014.0
20260509022509 61 290 0.0 0.0 0.00 0.00 0.00 59 1014.0
20260509022011 61 290 0.0 0.0 0.00 0.00 0.00 59 1014.1
20260509021508 61 290 0.0 0.0 0.00 0.00 0.00 58 1014.0
20260509021010 61 290 0.0 1.0 0.00 0.00 0.00 58 1014.1
20260509020510 61 290 0.0 2.0 0.00 0.00 0.00 58 1014.0
20260509020010 61 290 1.0 2.0 0.00 0.00 0.00 57 1014.0
20260509015509 61 290 0.0 0.0 0.00 0.00 0.00 57 1014.0
20260509014509 62 290 0.0 1.0 0.00 0.00 0.00 57 1013.9
20260509013509 62 290 0.0 0.0 0.00 0.00 0.00 56 1013.8
20260509013011 62 290 0.0 0.0 0.00 0.00 0.00 55 1013.8
20260509012509 62 290 0.0 3.0 0.00 0.00 0.00 55 1013.8
20260509011510 62 256 0.0 0.0 0.00 0.00 0.00 55 1013.7
20260509011010 62 256 0.0 0.0 0.00 0.00 0.00 54 1013.6
20260509010511 62 256 0.0 0.0 0.00 0.00 0.00 54 1013.5
20260509010012 62 256 0.0 0.0 0.00 0.00 0.00 53 1013.5
20260509005510 62 256 0.0 0.0 0.00 0.00 0.00 53 1013.3
20260509005012 62 256 0.0 0.0 0.00 0.00 0.00 53 1013.2
20260509004509 62 256 0.0 0.0 0.00 0.00 0.00 53 1013.1
20260509003009 63 256 0.0 2.0 0.00 0.00 0.00 52 1013.0
20260509002508 63 256 0.0 1.0 0.00 0.00 0.00 52 1012.8
20260509002011 63 256 0.0 0.0 0.00 0.00 0.00 52 1012.8
20260509001509 63 256 0.0 1.0 0.00 0.00 0.00 51 1012.7
20260509001010 63 256 0.0 0.0 0.00 0.00 0.00 51 1012.7
20260509000510 63 256 0.0 0.0 0.00 0.00 0.00 51 1012.7
20260509000010 63 256 0.0 1.0 0.00 0.00 0.00 50 1012.6
20260508235010 63 256 0.0 2.0 0.00 0.00 0.00 50 1012.6
20260508234009 64 256 0.0 3.0 0.00 0.00 0.00 48 1012.5
20260508233510 64 256 2.0 4.0 0.00 0.00 0.00 48 1012.5
20260508233010 64 290 1.0 4.0 0.00 0.00 0.00 47 1012.4
20260508232508 64 346 1.0 2.0 0.00 0.00 0.00 47 1012.3
20260508232011 64 327 0.0 6.0 0.00 0.00 0.00 46 1012.2
20260508231508 64 257 0.0 5.0 0.00 0.00 0.00 45 1012.2
20260508231010 64 244 0.0 2.0 0.00 0.00 0.00 45 1012.2
20260508230510 65 244 0.0 2.0 0.00 0.00 0.00 44 1012.1
20260508230010 65 244 1.0 2.0 0.00 0.00 0.00 44 1012.0
20260508225508 65 254 0.0 5.0 0.00 0.00 0.00 44 1011.9
20260508225010 65 279 0.0 2.0 0.00 0.00 0.00 44 1011.9
20260508224509 65 279 0.0 2.0 0.00 0.00 0.00 43 1012.0
20260508224010 65 280 0.0 2.0 0.00 0.00 0.00 43 1011.9
20260508223508 65 192 1.0 3.0 0.00 0.00 0.00 43 1011.9
20260508223014 65 279 0.0 3.0 0.00 0.00 0.00 43 1011.9
20260508222510 65 296 0.0 3.0 0.00 0.00 0.00 42 1011.9
20260508222010 65 296 1.0 5.0 0.00 0.00 0.00 41 1011.9
20260508221511 66 281 0.0 5.0 0.00 0.00 0.00 42 1012.0
20260508221010 66 321 0.0 6.0 0.00 0.00 0.00 43 1011.9
20260508220509 66 36 0.0 6.0 0.00 0.00 0.00 42 1011.9
20260508220029 66 194 0.0 5.0 0.00 0.00 0.00 43 1012.0
20260508215010 66 10 0.0 4.0 0.00 0.00 0.00 41 1011.9
20260508214509 66 153 1.0 3.0 0.00 0.00 0.00 41 1011.9
20260508213509 66 17 1.0 9.0 0.00 0.00 0.00 41 1011.9
20260508213010 67 298 1.0 10.0 0.00 0.00 0.00 41 1011.8
20260508212009 68 297 3.0 9.0 0.00 0.00 0.00 38 1011.8
20260508211508 69 331 4.0 9.0 0.00 0.00 0.00 38 1011.8
20260508211011 69 65 2.0 13.0 0.00 0.00 0.00 39 1011.8
20260508210508 69 298 3.0 13.0 0.00 0.00 0.00 39 1011.9
20260508210010 69 40 6.0 11.0 0.00 0.00 0.00 38 1011.9
20260508205510 68 331 1.0 13.0 0.00 0.00 0.00 45 1011.9
20260508205009 68 329 6.0 13.0 0.00 0.00 0.00 40 1011.8
20260508204010 67 332 2.0 11.0 0.00 0.00 0.00 42 1012.1
20260508203508 66 338 4.0 11.0 0.00 0.00 0.00 40 1012.2
20260508202510 66 328 4.0 11.0 0.00 0.00 0.00 42 1012.2
20260508201511 66 271 5.0 9.0 0.00 0.00 0.00 41 1012.3
20260508201011 66 328 6.0 13.0 0.00 0.00 0.00 40 1012.3
20260508200509 67 284 3.0 13.0 0.00 0.00 0.00 41 1012.3
20260508200027 67 283 4.0 11.0 0.00 0.00 0.00 41 1012.3
20260508195509 68 270 3.0 11.0 0.00 0.00 0.00 42 1012.4
20260508194511 67 263 3.0 10.0 0.00 0.00 0.00 42 1012.6
20260508194010 66 176 3.0 10.0 0.00 0.00 0.00 44 1012.7
20260508193510 65 274 3.0 11.0 0.00 0.00 0.00 46 1012.7
20260508193012 65 360 3.0 11.0 0.00 0.00 0.00 44 1012.7
20260508192510 65 300 4.0 10.0 0.00 0.00 0.00 42 1012.7
20260508192010 65 215 4.0 17.0 0.00 0.00 0.00 42 1012.7
20260508191510 65 327 5.0 17.0 0.00 0.00 0.00 43 1012.7
20260508191010 65 227 1.0 8.0 0.00 0.00 0.00 43 1012.7
20260508190508 66 15 3.0 12.0 0.00 0.00 0.00 40 1012.6
20260508190012 68 315 6.0 14.0 0.00 0.00 0.00 40 1012.7
20260508185009 69 321 3.0 10.0 0.00 0.00 0.00 45 1012.7
20260508184510 68 271 2.0 9.0 0.00 0.00 0.00 41 1012.8
20260508184009 67 161 3.0 11.0 0.00 0.00 0.00 42 1012.9
20260508183508 67 327 3.0 13.0 0.00 0.00 0.00 42 1012.9
20260508183011 67 336 5.0 13.0 0.00 0.00 0.00 41 1013.0
20260508182508 67 86 1.0 12.0 0.00 0.00 0.00 41 1012.9
20260508181509 66 324 4.0 12.0 0.00 0.00 0.00 42 1013.1
20260508181009 65 276 5.0 12.0 0.00 0.00 0.00 44 1013.2
20260508180009 64 252 3.0 10.0 0.00 0.00 0.00 43 1013.2
20260508175508 64 300 4.0 10.0 0.00 0.00 0.00 44 1013.3
20260508174509 64 302 5.0 14.0 0.00 0.00 0.00 45 1013.3
20260508173510 66 360 4.0 10.0 0.00 0.00 0.00 44 1013.4
20260508172508 65 309 3.0 12.0 0.00 0.00 0.00 43 1013.4
20260508172010 66 288 4.0 12.0 0.00 0.00 0.00 45 1013.5
20260508171508 66 314 2.0 10.0 0.00 0.00 0.00 45 1013.5
20260508171009 66 171 3.0 11.0 0.00 0.00 0.00 44 1013.4
20260508170510 65 316 4.0 14.0 0.00 0.00 0.00 43 1013.4
20260508170010 65 327 4.0 14.0 0.00 0.00 0.00 42 1013.4
20260508165508 65 337 4.0 12.0 0.00 0.00 0.00 44 1013.5
20260508165010 65 314 4.0 9.0 0.00 0.00 0.00 42 1013.6
20260508164508 65 49 2.0 11.0 0.00 0.00 0.00 46 1013.4
20260508164009 64 319 5.0 13.0 0.00 0.00 0.00 45 1013.7
20260508163508 65 277 5.0 11.0 0.00 0.00 0.00 46 1013.8
20260508163010 64 91 2.0 9.0 0.00 0.00 0.00 47 1013.9
20260508162508 63 317 4.0 9.0 0.00 0.00 0.00 46 1014.1
20260508162010 63 317 4.0 9.0 0.00 0.00 0.00 44 1014.3
20260508161510 64 273 4.0 10.0 0.00 0.00 0.00 45 1014.4
20260508161009 64 273 3.0 6.0 0.00 0.00 0.00 48 1014.4
20260508160508 63 355 3.0 12.0 0.00 0.00 0.00 45 1014.5
20260508160011 64 243 3.0 13.0 0.00 0.00 0.00 48 1014.4
20260508155508 63 275 4.0 13.0 0.00 0.00 0.00 46 1014.6
20260508154510 62 317 4.0 10.0 0.00 0.00 0.00 46 1014.7
20260508154010 62 192 3.0 10.0 0.00 0.00 0.00 43 1014.8
20260508153508 62 294 3.0 10.0 0.00 0.00 0.00 48 1014.8
20260508153011 62 140 2.0 6.0 0.00 0.00 0.00 47 1014.9
20260508152508 61 323 2.0 10.0 0.00 0.00 0.00 50 1014.9
20260508152009 62 296 5.0 10.0 0.00 0.00 0.00 46 1014.9
20260508151510 62 25 1.0 10.0 0.00 0.00 0.00 52 1014.9
20260508151009 62 254 3.0 8.0 0.00 0.00 0.00 50 1014.9
20260508145011 59 333 4.0 9.0 0.00 0.00 0.00 50 1015.2
20260508144508 59 360 2.0 9.0 0.00 0.00 0.00 48 1015.1
20260508143510 58 183 1.0 8.0 0.00 0.00 0.00 49 1015.1
20260508143009 58 284 2.0 6.0 0.00 0.00 0.00 54 1015.2
20260508142508 58 273 1.0 4.0 0.00 0.00 0.00 52 1015.1
20260508142011 59 209 3.0 4.0 0.00 0.00 0.00 49 1015.2
20260508141009 57 257 2.0 8.0 0.00 0.00 0.00 51 1015.3
20260508140509 57 288 3.0 8.0 0.00 0.00 0.00 49 1015.3
20260508140010 57 273 3.0 8.0 0.00 0.00 0.00 50 1015.3
20260508135508 57 311 4.0 8.0 0.00 0.00 0.00 50 1015.3
20260508135011 58 188 2.0 6.0 0.00 0.00 0.00 54 1015.5
20260508134508 58 211 2.0 6.0 0.00 0.00 0.00 50 1015.4
20260508133508 57 332 2.0 5.0 0.00 0.00 0.00 52 1015.4
20260508133011 57 294 1.0 5.0 0.00 0.00 0.00 54 1015.4
20260508132509 56 336 2.0 5.0 0.00 0.00 0.00 53 1015.5
20260508132009 55 302 1.0 5.0 0.00 0.00 0.00 52 1015.5
20260508131010 55 167 0.0 6.0 0.00 0.00 0.00 56 1015.3
20260508130508 55 281 1.0 5.0 0.00 0.00 0.00 59 1015.6
20260508130011 55 299 3.0 7.0 0.00 0.00 0.00 60 1015.7
20260508125508 54 308 2.0 7.0 0.00 0.00 0.00 62 1015.7
20260508125010 54 203 2.0 5.0 0.00 0.00 0.00 66 1015.5
20260508124509 53 317 3.0 4.0 0.00 0.00 0.00 66 1015.5
20260508124008 52 167 1.0 5.0 0.00 0.00 0.00 71 1015.5
20260508123507 51 343 0.0 5.0 0.00 0.00 0.00 73 1015.5
20260508123009 51 333 2.0 5.0 0.00 0.00 0.00 74 1015.5
20260508122507 50 293 2.0 5.0 0.00 0.00 0.00 75 1015.4
20260508121509 49 326 2.0 8.0 0.00 0.00 0.00 79 1015.5
20260508121008 49 292 3.0 8.0 0.00 0.00 0.00 80 1015.6
20260508120507 48 320 2.0 6.0 0.00 0.00 0.00 81 1015.6
20260508120012 48 290 3.0 5.0 0.00 0.00 0.00 83 1015.5
20260508115507 47 306 3.0 5.0 0.00 0.00 0.00 85 1015.4
20260508115008 46 292 2.0 4.0 0.00 0.00 0.00 86 1015.3
20260508114509 46 284 0.0 4.0 0.00 0.00 0.00 87 1015.3
20260508113509 45 266 0.0 0.0 0.00 0.00 0.00 89 1015.2
20260508113008 44 266 0.0 0.0 0.00 0.00 0.00 89 1015.1
20260508112010 44 266 0.0 0.0 0.00 0.00 0.00 89 1015.3
20260508111508 44 266 0.0 0.0 0.00 0.00 0.00 89 1015.3
20260508111008 43 266 0.0 0.0 0.00 0.00 0.00 89 1015.3
20260508110508 43 266 0.0 0.0 0.00 0.00 0.00 88 1015.2
20260508110009 43 266 0.0 0.0 0.00 0.00 0.00 88 1015.2
20260508105507 43 266 0.0 0.0 0.00 0.00 0.00 88 1015.1
20260508105010 43 266 0.0 0.0 0.00 0.00 0.00 88 1015.0
20260508104508 43 266 0.0 0.0 0.00 0.00 0.00 88 1014.9
20260508104008 43 266 0.0 0.0 0.00 0.00 0.00 87 1014.7
20260508103509 43 266 0.0 0.0 0.00 0.00 0.00 87 1014.8
20260508103008 43 266 0.0 0.0 0.00 0.00 0.00 86 1014.7
20260508102507 43 266 0.0 0.0 0.00 0.00 0.00 86 1014.7
20260508102009 43 266 0.0 0.0 0.00 0.00 0.00 86 1014.7
20260508101507 43 266 0.0 0.0 0.00 0.00 0.00 85 1014.6
20260508100507 43 266 0.0 0.0 0.00 0.00 0.00 85 1014.5
20260508095507 44 266 0.0 0.0 0.00 0.00 0.00 84 1014.4
20260508095008 44 266 0.0 0.0 0.00 0.00 0.00 83 1014.4
20260508094008 44 266 0.0 0.0 0.00 0.00 0.00 82 1014.4
20260508093507 45 266 0.0 0.0 0.00 0.00 0.00 81 1014.3
20260508092008 46 266 0.0 0.0 0.00 0.00 0.00 79 1014.3
20260508091509 46 266 0.0 0.0 0.00 0.00 0.00 78 1014.2
20260508091008 47 266 0.0 0.0 0.00 0.00 0.00 78 1014.2
20260508090012 47 266 0.0 0.0 0.00 0.00 0.00 77 1014.2
20260508085507 47 266 0.0 0.0 0.00 0.01 0.00 76 1014.2
20260508085009 48 266 0.0 0.0 0.00 0.01 0.00 76 1014.1
20260508084509 48 266 0.0 0.0 0.00 0.01 0.00 75 1014.0
20260508084008 48 266 0.0 0.0 0.00 0.01 0.00 75 1013.8
20260508083507 49 266 0.0 0.0 0.00 0.01 0.00 75 1013.7
20260508083009 49 266 0.0 3.0 0.00 0.01 0.00 75 1013.5
20260508082008 49 306 0.0 2.0 0.00 0.01 0.00 74 1013.4
20260508081508 50 306 0.0 2.0 0.00 0.01 0.00 74 1013.3
20260508081008 50 306 0.0 2.0 0.00 0.01 0.00 74 1013.3
20260508080507 50 307 0.0 4.0 0.00 0.01 0.00 74 1013.2
20260508080010 50 303 0.0 5.0 0.00 0.01 0.00 73 1013.1
20260508075507 50 321 1.0 4.0 0.00 0.01 0.00 73 1013.0
20260508074509 51 347 1.0 4.0 0.00 0.01 0.00 72 1012.8
20260508074008 51 278 1.0 4.0 0.00 0.01 0.00 72 1012.8
20260508073507 51 331 0.0 4.0 0.00 0.01 0.00 72 1012.9
20260508073028 51 314 1.0 6.0 0.00 0.01 0.00 72 1012.8
20260508072507 51 296 1.0 7.0 0.00 0.01 0.00 72 1012.7
20260508072008 51 336 0.0 6.0 0.00 0.01 0.00 72 1012.6
20260508071508 51 281 3.0 9.0 0.00 0.01 0.00 72 1012.6
20260508070507 51 355 0.0 10.0 0.00 0.01 0.00 74 1012.4
20260508070011 51 296 1.0 5.0 0.00 0.01 0.00 74 1012.4